sat.trackr.live / text

‹ back to catalog

STARLINK-36549

NORAD 67510 · 2026-012T

PAYLOAD ACTIVE UNKNOWN

§ Identity

Operator
Country
US
Launch date
2026-01-18
Launch site
AFETR
Launch vehicle
Mass (kg)
RCS (m²)

Purposes: comms

External: N2YO · Heavens-Above · Gunter

§ Orbital elements

Epoch: 2026-05-24T15:33:15.768288Z

Period
94.27 min
Inclination
42.9999°
Eccentricity
0.0001202
Mean motion
15.27582027 rev/d
Perigee alt
482.2 km
Apogee alt
483.9 km
Semi-major
6,861.2 km
B*
1.7863e-4
RAAN
244.9777°
Arg perigee
265.2266°
Mean anomaly
94.8448°
Rev number
1,938

§ Raw data

STARLINK-365491 67510U 26012T   26144.64809917  .00004657  00000+0  17863-3 0  99902 67510  42.9999 244.9777 0001202 265.2266  94.8448 15.27582027 19384

JSON: /api/v1/satellites/67510 · /tle

For live sub-satellite position, see the globe view (requires WebGL).

§ Visibility from observer

Set your observer location to see the next 7 days of passes ≥ 10°. The values pass through the URL so the page stays shareable.

No JS? Fill the form by hand. The geolocation button needs JavaScript.